GW1241 Weather Reports


Display with metric or nautical units.
time (UTC)temp
F
wind
direction
speed
MPH
gust
MPH
rain 1hr
in
rain 24hr
in
rain mn
in
humidity
%
barometer
mb
20260906060037 78 270 1.0 2.0 0.00 0.00 0.00 84 1013.3
20260906055032 77 211 0.0 2.0 0.00 0.00 0.00 86 1013.1
20260906054047 77 113 0.0 1.0 0.00 0.00 0.00 87 1013.1
20260906053022 77 44 0.0 1.0 0.00 0.00 0.00 85 1013.2
20260906052017 77 116 0.0 1.0 0.00 0.00 0.00 86 1013.0
20260906051032 77 238 0.0 2.0 0.00 0.00 0.00 86 1013.2
20260906050027 78 0.0 1.0 0.00 0.00 0.00 86 1013.4
20260906045043 77 0.0 0.0 0.00 0.00 0.00 87 1013.3
20260906044017 77 0.0 1.0 0.00 0.00 0.00 87 1013.5
20260906043033 78 12 1.0 2.0 0.00 0.00 0.00 86 1013.4
20260906042028 78 343 0.0 1.0 0.00 0.00 0.00 85 1013.3
20260906041043 78 21 1.0 2.0 0.00 0.00 0.00 84 1013.5
20260906040038 78 0.0 0.0 0.00 0.00 0.00 84 1013.4
20260906035033 79 62 0.0 1.0 0.00 0.00 0.00 84 1013.4
20260906034049 79 0 0.0 1.0 0.00 0.00 0.00 80 1013.5
20260906033024 79 0.0 0.0 0.00 0.00 0.00 80 1013.4
20260906032019 80 157 0.0 1.0 0.00 0.00 0.00 80 1013.4
20260906031054 80 358 0.0 1.0 0.00 0.00 0.00 79 1013.5
20260906030029 80 0.0 0.0 0.00 0.00 0.00 79 1013.4
20260906025024 81 0.0 0.0 0.00 0.00 0.00 77 1013.2
20260906024040 81 0.0 1.0 0.00 0.00 0.00 77 1013.0
20260906023035 81 41 0.0 2.0 0.00 0.00 0.00 78 1012.9
20260906022030 81 257 0.0 1.0 0.00 0.00 0.00 78 1012.7
20260906021025 82 0.0 0.0 0.00 0.00 0.00 77 1012.4
20260906020020 82 359 0.0 1.0 0.00 0.00 0.00 77 1012.3
20260906015035 83 0.0 0.0 0.00 0.00 0.00 76 1012.2
20260906014031 83 0.0 0.0 0.00 0.00 0.00 76 1012.2
20260906013026 84 0.0 1.0 0.00 0.00 0.00 75 1012.2
20260906012021 84 0.0 0.0 0.00 0.00 0.00 76 1012.2
20260906011036 84 0.0 0.0 0.00 0.00 0.00 78 1012.0
20260906010032 84 71 1.0 4.0 0.00 0.00 0.00 78 1011.8
20260906005027 85 0.0 0.0 0.00 0.00 0.00 76 1011.7
20260906004042 86 328 0.0 1.0 0.00 0.00 0.00 73 1011.7
20260906003017 86 343 0.0 1.0 0.00 0.00 0.00 72 1011.7
20260906002053 87 0.0 1.0 0.00 0.00 0.00 70 1012.0
20260906001028 88 0.0 0.0 0.00 0.00 0.00 69 1012.0
20260906000024 88 0.0 0.0 0.00 0.00 0.00 67 1011.8
20260905235018 89 0.0 1.0 0.00 0.00 0.00 66 1011.8
20260905234034 89 0.0 1.0 0.00 0.00 0.00 65 1011.8
20260905233029 90 284 0.0 1.0 0.00 0.00 0.00 64 1011.9
20260905232024 91 302 0.0 1.0 0.00 0.00 0.00 63 1012.0
20260905231039 92 302 0.0 2.0 0.00 0.00 0.00 61 1011.8
20260905230035 92 286 1.0 2.0 0.00 0.00 0.00 59 1011.7
20260905225030 93 285 1.0 2.0 0.00 0.00 0.00 59 1011.8
20260905224025 93 296 1.0 2.0 0.00 0.00 0.00 59 1011.7
20260905223020 93 277 1.0 2.0 0.00 0.00 0.00 59 1011.7
20260905222035 95 292 1.0 2.0 0.00 0.00 0.00 55 1011.7
20260905221030 95 282 1.0 3.0 0.00 0.00 0.00 55 1011.9
20260905220025 95 310 1.0 3.0 0.00 0.00 0.00 54 1012.0
20260905215021 95 317 1.0 3.0 0.00 0.00 0.00 54 1012.0
20260905214016 95 270 0.0 2.0 0.00 0.00 0.00 54 1011.9
20260905213031 96 322 1.0 2.0 0.00 0.00 0.00 52 1011.9
20260905212026 96 286 2.0 3.0 0.00 0.00 0.00 50 1012.0
20260905211022 95 269 0.0 2.0 0.00 0.00 0.00 52 1012.0
20260905210037 96 60 1.0 3.0 0.00 0.00 0.00 48 1012.0
20260905205032 97 357 1.0 2.0 0.00 0.00 0.00 48 1012.1
20260905204027 96 346 2.0 3.0 0.00 0.00 0.00 50 1012.2
20260905203022 97 301 1.0 3.0 0.00 0.00 0.00 48 1012.5
20260905202017 96 350 1.0 3.0 0.00 0.00 0.00 51 1012.6
20260905201032 97 301 2.0 3.0 0.00 0.00 0.00 51 1012.8
20260905200027 99 156 1.0 4.0 0.00 0.00 0.00 47 1013.0
20260905195022 98 313 1.0 3.0 0.00 0.00 0.00 49 1013.1
20260905194018 98 269 2.0 4.0 0.00 0.00 0.00 50 1013.3
20260905193032 96 26 2.0 3.0 0.00 0.00 0.00 52 1013.4
20260905192028 99 312 2.0 3.0 0.00 0.00 0.00 51 1013.5
20260905191023 98 14 2.0 3.0 0.00 0.00 0.00 52 1013.6
20260905190018 98 283 1.0 3.0 0.00 0.00 0.00 52 1013.9
20260905185034 97 273 2.0 3.0 0.00 0.00 0.00 52 1014.0
20260905184049 95 286 2.0 3.0 0.00 0.00 0.00 55 1014.1
20260905183023 98 24 1.0 2.0 0.00 0.00 0.00 52 1014.1
20260905182018 97 295 1.0 4.0 0.00 0.00 0.00 52 1014.3
20260905181034 97 27 2.0 3.0 0.00 0.00 0.00 51 1014.4
20260905180029 97 262 2.0 4.0 0.00 0.00 0.00 52 1014.5
20260905175023 97 323 2.0 3.0 0.00 0.00 0.00 52 1014.6
20260905174018 97 293 1.0 4.0 0.00 0.00 0.00 51 1014.6
20260905173034 97 307 2.0 3.0 0.00 0.00 0.00 51 1014.8
20260905172029 96 64 2.0 3.0 0.00 0.00 0.00 52 1014.8
20260905171024 95 133 1.0 3.0 0.00 0.00 0.00 53 1015.0
20260905170019 95 320 2.0 3.0 0.00 0.00 0.00 54 1015.1
20260905165034 95 350 1.0 3.0 0.00 0.00 0.00 55 1015.2
20260905164029 95 13 1.0 3.0 0.00 0.00 0.00 56 1015.3
20260905163024 95 259 1.0 3.0 0.00 0.00 0.00 55 1015.4
20260905162019 95 325 1.0 2.0 0.00 0.00 0.00 55 1015.6
20260905161034 94 306 2.0 3.0 0.00 0.00 0.00 56 1015.6
20260905160029 94 260 2.0 3.0 0.00 0.00 0.00 56 1015.7
20260905155024 94 306 1.0 3.0 0.00 0.00 0.00 58 1015.8
20260905154019 94 342 1.0 2.0 0.00 0.00 0.00 59 1015.9
20260905153034 92 305 1.0 2.0 0.00 0.00 0.00 60 1015.8
20260905152029 93 314 1.0 2.0 0.00 0.00 0.00 60 1015.8
20260905151025 92 110 1.0 2.0 0.00 0.00 0.00 61 1015.8
20260905150020 91 72 0.0 2.0 0.00 0.00 0.00 64 1015.8
20260905145035 91 105 0.0 2.0 0.00 0.00 0.00 65 1015.7
20260905144031 89 294 1.0 2.0 0.00 0.00 0.00 68 1015.8
20260905143025 89 324 1.0 2.0 0.00 0.00 0.00 70 1015.9
20260905142020 87 344 0.0 2.0 0.00 0.00 0.00 72 1015.9
20260905141015 84 14 0.0 2.0 0.00 0.00 0.00 77 1016.0
20260905140051 82 1 0.0 1.0 0.00 0.00 0.00 83 1016.1
20260905135026 81 19 0.0 2.0 0.00 0.00 0.00 86 1016.1
20260905134021 80 0.0 0.0 0.00 0.00 0.00 88 1016.2
20260905133016 78 0.0 0.0 0.00 0.00 0.00 92 1016.2
20260905132031 77 7 0.0 1.0 0.00 0.00 0.00 94 1016.1
20260905131027 76 189 0.0 2.0 0.00 0.00 0.00 98 1016.1
20260905130021 75 356 0.0 1.0 0.00 0.00 0.00 98 1016.2
20260905125017 74 12 1.0 2.0 0.00 0.00 0.00 99 1016.2
20260905124052 74 12 0.0 1.0 0.00 0.00 0.00 99 1016.2
20260905123027 73 360 1.0 2.0 0.00 0.00 0.00 99 1016.1
20260905122022 73 26 2.0 3.0 0.00 0.00 0.00 99 1016.2
20260905121017 72 327 1.0 2.0 0.00 0.00 0.00 99 1015.9
20260905120032 72 58 0.0 1.0 0.00 0.00 0.00 99 1015.9
20260905115028 72 306 0.0 2.0 0.00 0.00 0.00 99 1015.7
20260905114023 72 349 1.0 3.0 0.00 0.00 0.00 99 1015.5
20260905113018 72 201 1.0 3.0 0.00 0.00 0.00 99 1015.4
20260905112033 73 9 1.0 2.0 0.00 0.00 0.00 99 1015.2
20260905111028 72 351 0.0 1.0 0.00 0.00 0.00 99 1015.2
20260905110024 72 59 0.0 1.0 0.00 0.00 0.00 99 1015.0
20260905105019 72 21 1.0 2.0 0.00 0.00 0.00 99 1015.0
20260905104054 72 0.0 1.0 0.00 0.00 0.00 99 1014.9
20260905103029 73 13 1.0 2.0 0.00 0.00 0.00 99 1014.8
20260905102024 73 0.0 1.0 0.00 0.00 0.00 99 1014.8
20260905101039 73 26 0.0 1.0 0.00 0.00 0.00 99 1014.8
20260905100034 72 0.0 1.0 0.00 0.00 0.00 98 1014.9
20260905095029 73 0.0 0.0 0.00 0.00 0.00 98 1014.8
20260905094024 73 0.0 0.0 0.00 0.00 0.00 98 1014.7
20260905093046 73 0.0 0.0 0.00 0.00 0.00 98 1014.5
20260905092033 73 0.0 0.0 0.00 0.00 0.00 98 1014.5
20260905091028 73 1 1.0 2.0 0.00 0.00 0.00 98 1014.4
20260905090023 73 5 1.0 1.0 0.00 0.00 0.00 98 1014.4
20260905085019 73 0.0 0.0 0.00 0.00 0.00 98 1014.5
20260905084053 73 14 0.0 1.0 0.00 0.00 0.00 98 1014.5
20260905083029 73 351 0.0 1.0 0.00 0.00 0.00 98 1014.5
20260905082044 73 14 0.0 1.0 0.00 0.00 0.00 97 1014.3
20260905081019 73 0.0 0.0 0.00 0.00 0.00 97 1014.3
20260905080034 73 8 1.0 2.0 0.00 0.00 0.00 97 1014.2
20260905075029 73 0.0 0.0 0.00 0.00 0.00 97 1014.3
20260905074024 73 0.0 0.0 0.00 0.00 0.00 97 1014.2
20260905073020 73 0.0 0.0 0.00 0.00 0.00 97 1014.3
20260905072035 74 0.0 0.0 0.00 0.00 0.00 96 1014.4
20260905071030 74 0.0 0.0 0.00 0.00 0.00 96 1014.5
20260905070026 74 0.0 0.0 0.00 0.00 0.00 96 1014.7
20260905065020 74 0.0 1.0 0.00 0.00 0.00 95 1014.6
20260905064035 74 0 0.0 1.0 0.00 0.00 0.00 95 1014.7
20260905063031 74 0.0 0.0 0.00 0.00 0.00 94 1014.8
20260905062025 74 0.0 1.0 0.00 0.00 0.00 94 1014.9
20260905061021 74 7 0.0 2.0 0.00 0.00 0.00 94 1014.9